Accueil
METAR-TAF:

METAR-TAF

Aéroports :

NWS Office

Ponape, Micronésie

latitude: 06-58N, longitude: 158-13E, altitude: 39 m

Observation

Le bulletin a été fait il y a 1 heure et 0 minutes, à 08:50 UTC
Vent calme
Température 27°C
Humidité 94%
Pression 1008 hPa
Visibilité: 24.1 km
Nuages épars à une hauteur de 1800 ft
Nuages fragmentés à une hauteur de 13000 ft
Ciel couvert à une hauteur de 30000 ft

METAR: PTTP 180850Z 00000KT 15SM SCT018 BKN130 OVC300 27/26 A2976 RMK SLP078 60028 8/178 T02720255 52010

Heure: 20:50 (09:50 UTC)


TAF: absent

Observations et prévisions météorologiques de plus de 4000 aéroports (messages METAR et TAF).

Les stations disponibles sont représentées par des disques jaunes et rouges sur la carte.

Passer la souris dessus pour voir le nom de la station.

Cliquer dessus pour voir les observations et prévisions météorologiques.

Pour changer de carte: cliquez sur les boutons verts avec une croix noire pour zoomer, sur le bouton vert avec un tiret pour effectuer un zoom arrière, ou sur les flèches vertes pour les cartes adjacentes.


METAR-TAF: